[[{"header":{"parameterUnit":"m.s-1","parameterCategory":2,"la1":30.2991,"la2":30.254,"lo1":-89.0895,"lo2":-89.0444,"dy":0.0017,"dx":0.0017,"nx":28,"ny":28,"refTime":"2025-08-01T03:00:00:Z","depth":"0","parameterNumber":2,"parameterNumberName":"U-component_of_CURRENTS"},"data":[0,0,0,0,0,0,0,0,0,0,0,0,0,0,0,0,0,0,0,0,0,0,0,0,0,0,0,0,0,0,0,0,0,0,0,0,0,0,0,0,0,0,0,0,0,0,0,0,0,0,0,0,0,0,0,0,0,0,0.2682,0.2682,0,0.2657,0.2656,0.2656,0.263,0.263,0.263,0.263,0.2623,0.2623,0.2623,0,0,0,0,0,0,0,0,0,0,0,0,0,0.2686,0.2686,0.2683,0.2682,0.2682,0.2657,0.2656,0.2656,0.263,0.263,0.263,0.263,0.2623,0.2623,0.2623,0,0,0,0,0,0,0,0,0,0,0,0,0,0.2673,0.2686,0.2683,0.2669,0.2667,0.2657,0.2656,0.2655,0.263,0.263,0.263,0.263,0.2623,0.2623,0.2623,0.2625,0,0,0.2622,0.2622,0,0,0,0,0,0,0,0,0.2673,0.2672,0.2671,0.267,0.2668,0.2649,0.2655,0.2647,0.263,0.2642,0.263,0.263,0.2635,0.2634,0.2626,0.2624,0.2624,0.2622,0.2622,0.2622,0.2622,0,0,0,0,0,0,0,0.2674,0.2673,0.267,0.2671,0.2669,0.2656,0.2654,0.2653,0.2638,0.2641,0.2639,0.2641,0.2634,0.2626,0.2625,0.2624,0.2622,0.2622,0.2622,0.2622,0.2695,0.2697,0,0,0,0,0,0,0.2684,0.2674,0.267,0.2669,0.2673,0.2656,0.2654,0.2653,0.2637,0.2635,0.2641,0.264,0.2626,0.2625,0.2625,0.2642,0.2622,0.2622,0.2622,0.2693,0.2696,0.2698,0,0,0,0,0,0,0.2684,0.2684,0.2672,0.2673,0.2671,0.2657,0.2656,0.2653,0.2646,0.2638,0.2636,0.2638,0.2626,0.2625,0.2636,0.2641,0.2622,0.2622,0.2691,0.2694,0.2697,0.2666,0,0,0,0,0,0,0.2685,0.2684,0.2684,0.2674,0.2671,0.2664,0.2656,0.2652,0.2648,0.2646,0.2635,0.2634,0.2626,0.2636,0.2636,0.2641,0.2622,0.2688,0.2692,0.2696,0.2665,0.2668,0.2671,0,0,0,0,0,0.2685,0.2681,0.2684,0.2683,0.2672,0.2664,0.2661,0.2649,0.2648,0.2642,0.2646,0.2634,0.2661,0.2637,0.2636,0.2641,0.2686,0.2691,0.2696,0.2664,0.2667,0.2671,0,0,0,0,0,0,0.2679,0.2679,0.2681,0.2677,0.2673,0.2661,0.2653,0.2652,0.2649,0.2649,0.2644,0.2644,0.2661,0.2667,0.2641,0.2683,0.2678,0.2683,0.2655,0.2658,0.2661,0.2648,0.2622,0,0,0,0,0,0.2681,0.2677,0.2678,0.2674,0.2673,0.2666,0.2661,0.2656,0.2655,0.2652,0.2647,0.266,0.268,0.268,0.2695,0.2703,0.2726,0.2717,0.272,0.2722,0.2717,0.2765,0.2771,0.2713,0.2713,0.2713,0,0,0.2677,0.2677,0.2674,0.2672,0.2666,0.2656,0.2661,0.2654,0.2647,0.2654,0.2642,0.2666,0.269,0.2703,0.2712,0.2703,0.2755,0.2727,0.2728,0.2722,0.277,0.2776,0.278,0.2716,0.2715,0.2715,0,0,0.2662,0.2667,0.2658,0.2654,0.2652,0.2649,0.2651,0.2644,0.2642,0.2643,0.2661,0.2689,0.2697,0.2718,0.2731,0.2765,0.2774,0.278,0.2768,0.2815,0.2819,0.2823,0.2867,0.2875,0.2774,0.2774,0.2774,0,0.2658,0.2646,0.2654,0.2643,0.2636,0.2647,0.2633,0.2634,0.2632,0.2637,0.2638,0.2686,0.2704,0.2736,0.2752,0.2766,0.2796,0.274,0.2815,0.2819,0.2823,0.2868,0.2877,0.2773,0.2773,0.2773,0.2773,0,0.2634,0.2625,0.2618,0.2608,0.2603,0.2594,0.26,0.26,0.2607,0.2612,0.2645,0.2677,0.2706,0.2729,0.2744,0.2793,0.2806,0.2813,0.2792,0.2826,0.2872,0.2882,0.2772,0.2772,0.2772,0.2773,0,0,0.263,0.2605,0.2602,0.2588,0.2585,0.2575,0.2574,0.2578,0.2578,0.2597,0.2607,0.2661,0.2687,0.2709,0.2744,0.2785,0.2848,0.2808,0.2811,0.2828,0.2954,0.2902,0.2908,0.2863,0.2865,0.2866,0.2975,0,0.2609,0.2574,0.2572,0.254,0.2524,0.2534,0.2529,0.2538,0.2552,0.2565,0.2619,0.2645,0.2677,0.2699,0.2746,0.2824,0.2872,0.2818,0.294,0.2943,0.2872,0.2917,0.279,0.2871,0.2985,0.2986,0.2987,0,0.2593,0.2568,0.2531,0.2504,0.2499,0.2485,0.2483,0.2482,0.2515,0.2529,0.2569,0.2609,0.268,0.2702,0.2837,0.28,0.2877,0.2936,0.2941,0.2906,0.2909,0.2858,0.2885,0.2734,0.3003,0.3002,0.3,0,0.2584,0.2544,0.251,0.2499,0.2473,0.2463,0.2457,0.2473,0.2474,0.2513,0.2521,0.2603,0.2645,0.275,0.286,0.286,0.3003,0.3017,0.3046,0.3044,0.2965,0.2952,0.2835,0.3119,0.3118,0.3118,0.3118,0,0.257,0.2545,0.25,0.2481,0.2447,0.2441,0.2422,0.243,0.2446,0.2447,0.2505,0.253,0.266,0.2748,0.2858,0.2971,0.3005,0.305,0.3068,0.2953,0.2939,0.2828,0.2767,0.3122,0.3121,0.312,0.312,0,0.2576,0.2543,0.2505,0.246,0.2443,0.2423,0.2393,0.2381,0.24,0.2406,0.2418,0.2492,0.2602,0.2724,0.2894,0.2955,0.2982,0.311,0.296,0.2957,0.2828,0.2773,0.2673,0.2645,0.3166,0.3165,0.3164,0,0.2578,0.2556,0.2492,0.2458,0.2436,0.2398,0.2372,0.2366,0.2353,0.2382,0.2386,0.2478,0.2536,0.274,0.2874,0.3037,0.295,0.2994,0.2969,0.2796,0.275,0.2666,0.2645,0.2869,0.2866,0.2864,0.2862,0,0.2581,0.2556,0.2516,0.2447,0.2401,0.2354,0.2316,0.2299,0.2294,0.2294,0.2315,0.2364,0.2536,0.262,0.2799,0.2898,0.2802,0.295,0.2812,0.2534,0.2397,0.2385,0.2823,0.2841,0.2843,0.2844,0.2845,0.2846,0.2579,0.2549,0.2483,0.2421,0.2364,0.2302,0.2248,0.2222,0.2191,0.2155,0.2229,0.2244,0.2345,0.2584,0.2664,0.2634,0.2703,0.2569,0.2531,0.2474,0.2375,0.2758,0.2764,0.2765,0.2767,0.2768,0.2769,0,0.2547,0.2503,0.2454,0.2351,0.2276,0.2262,0.2192,0.2125,0.2065,0.2069,0.206,0.2062,0.2119,0.2217,0.2258,0.2197,0.2195,0.2118,0.1949,0.1972,0.2339,0.2249,0.2091,0.2091,0.2091,0.2092,0.2092,0.2092,0.2514,0.2446,0.2416,0.2279,0.2211,0.2075,0.2025,0.1948,0.1918,0.1815,0.177,0.1788,0.1811,0.1765,0.1702,0.1714,0.161,0.1536,0.1589,0.1781,0.1819,0.1854,0.1752,0.1493,0.1492,0.117,0.1167,0.1164]},{"header":{"parameterUnit":"m.s-1","parameterCategory":2,"la1":30.2991,"la2":30.254,"lo1":-89.0895,"lo2":-89.0444,"dy":0.0017,"dx":0.0017,"nx":28,"ny":28,"refTime":"2025-08-01T03:00:00:Z","depth":"0","parameterNumber":3,"parameterNumberName":"V-component_of_CURRENTS"},"data":[0,0,0,0,0,0,0,0,0,0,0,0,0,0,0,0,0,0,0,0,0,0,0,0,0,0,0,0,0,0,0,0,0,0,0,0,0,0,0,0,0,0,0,0,0,0,0,0,0,0,0,0,0,0,0,0,0,0,-0.0435,-0.0434,0,-0.0342,-0.0341,-0.034,-0.031,-0.0311,-0.0311,-0.0312,-0.02,-0.0197,-0.0193,0,0,0,0,0,0,0,0,0,0,0,0,0,-0.0531,-0.0529,-0.0435,-0.0434,-0.0433,-0.0342,-0.0341,-0.0339,-0.031,-0.0311,-0.0312,-0.0312,-0.0201,-0.0197,-0.0193,0,0,0,0,0,0,0,0,0,0,0,0,0,-0.0467,-0.0529,-0.0436,-0.0409,-0.0406,-0.0343,-0.0341,-0.0339,-0.031,-0.0311,-0.0312,-0.0313,-0.0203,-0.0198,-0.0192,-0.0141,0,0,-0.0176,-0.0174,0,0,0,0,0,0,0,0,-0.0471,-0.0463,-0.0414,-0.0411,-0.0407,-0.034,-0.0334,-0.0273,-0.031,-0.0344,-0.0312,-0.0313,-0.0246,-0.0237,-0.0215,-0.0136,-0.0131,-0.0176,-0.0172,-0.017,-0.0169,0,0,0,0,0,0,0,-0.0475,-0.0467,-0.0396,-0.0413,-0.0409,-0.0383,-0.0375,-0.0321,-0.0289,-0.0341,-0.034,-0.0332,-0.0244,-0.022,-0.0212,-0.0129,-0.0176,-0.0171,-0.0168,-0.0166,0.0011,0.0012,0,0,0,0,0,0,-0.0492,-0.0471,-0.0399,-0.0394,-0.0444,-0.0381,-0.0372,-0.0359,-0.029,-0.0281,-0.0331,-0.0331,-0.0229,-0.0219,-0.0208,-0.013,-0.017,-0.0165,-0.0162,0.0009,0.0011,0.0013,0,0,0,0,0,0,-0.0495,-0.0487,-0.0403,-0.0432,-0.042,-0.0379,-0.0364,-0.0357,-0.0336,-0.0283,-0.0274,-0.0318,-0.0229,-0.0216,-0.0151,-0.0126,-0.0163,-0.0158,0.0008,0.001,0.0012,0.0019,0,0,0,0,0,0,-0.0498,-0.0488,-0.048,-0.0433,-0.0419,-0.0361,-0.0364,-0.0355,-0.033,-0.0329,-0.0268,-0.0259,-0.0229,-0.0159,-0.0146,-0.0119,-0.0154,0.0006,0.0009,0.0011,0.0017,0.0021,0.0025,0,0,0,0,0,-0.0501,-0.0484,-0.048,-0.0472,-0.0412,-0.036,-0.0349,-0.0322,-0.0329,-0.0309,-0.0268,-0.0261,-0.0132,-0.0153,-0.0138,-0.0109,0.0004,0.0008,0.0011,0.0015,0.002,0.0024,0,0,0,0,0,0,-0.0519,-0.0478,-0.0473,-0.0444,-0.0406,-0.0356,-0.0334,-0.0322,-0.0273,-0.0274,-0.0235,-0.022,-0.0157,-0.013,-0.0155,-0.005,-0.0065,-0.0058,-0.0068,-0.0062,-0.0058,-0.0072,-0.0149,0,0,0,0,0,-0.0522,-0.0498,-0.0457,-0.0433,-0.0416,-0.0378,-0.0355,-0.0336,-0.0291,-0.0272,-0.0229,-0.0181,-0.0128,-0.0096,-0.0046,0.0018,0.0012,0.0044,0.0048,0.0051,0.0051,0.0057,0.006,0.0024,0.0024,0.0024,0,0,-0.0522,-0.0497,-0.0483,-0.0435,-0.0406,-0.0363,-0.0365,-0.0327,-0.0288,-0.0265,-0.0199,-0.0165,-0.0109,-0.004,-0.0009,-0.0016,0.0061,0.0056,0.0058,0.0056,0.006,0.0063,0.0066,0.0026,0.0026,0.0026,0,0,-0.0505,-0.0489,-0.0462,-0.0428,-0.0384,-0.0354,-0.0346,-0.0293,-0.0268,-0.0202,-0.0179,-0.0133,-0.0045,-0.0003,0.0029,0.0087,0.0078,0.0104,0.0119,0.0125,0.0127,0.0129,0.0125,0.0127,0.0109,0.0109,0.0109,0,-0.0512,-0.0468,-0.0445,-0.0407,-0.0375,-0.0351,-0.031,-0.0272,-0.0204,-0.0179,-0.0181,-0.0069,-0.0027,0.0051,0.0071,0.0095,0.0089,0.0094,0.0127,0.0129,0.0131,0.0126,0.0128,0.011,0.011,0.011,0.011,0,-0.047,-0.0434,-0.0413,-0.0358,-0.032,-0.028,-0.0232,-0.0194,-0.017,-0.0135,-0.0067,-0.0016,0.0044,0.0069,0.0093,0.0138,0.0126,0.0124,0.0106,0.0134,0.0128,0.013,0.0111,0.0111,0.011,0.011,0,0,-0.0493,-0.0403,-0.0396,-0.036,-0.0292,-0.0255,-0.0195,-0.0131,-0.0097,-0.0047,-0.0001,0.008,0.0081,0.0117,0.0144,0.0156,0.0166,0.0147,0.0147,0.0128,0.0167,0.0166,0.0167,0.0162,0.0163,0.0163,0.0157,0,-0.0469,-0.0392,-0.035,-0.0274,-0.023,-0.0186,-0.0131,-0.0075,-0.0034,0.0018,0.0052,0.0108,0.0108,0.0133,0.0144,0.0169,0.0171,0.0168,0.0157,0.0157,0.0139,0.0169,0.0228,0.0228,0.0158,0.0158,0.0158,0,-0.0444,-0.0393,-0.0317,-0.0229,-0.0207,-0.0162,-0.0084,-0.0029,0.0039,0.0067,0.0106,0.0131,0.0176,0.0158,0.0185,0.018,0.0172,0.0175,0.0174,0.017,0.0158,0.0192,0.0233,0.0197,0.016,0.016,0.016,0,-0.0466,-0.0371,-0.0311,-0.0279,-0.0178,-0.0144,-0.0094,-0.0021,0.003,0.009,0.0124,0.0162,0.0194,0.0185,0.0201,0.0187,0.0215,0.0196,0.0181,0.0181,0.0229,0.0231,0.0222,0.0194,0.0194,0.0194,0.0194,0,-0.0452,-0.0404,-0.0319,-0.0284,-0.0219,-0.0153,-0.0086,-0.0033,0.004,0.011,0.0138,0.0201,0.0201,0.0226,0.0209,0.0209,0.0218,0.0188,0.0184,0.0234,0.0237,0.0206,0.0169,0.0194,0.0194,0.0194,0.0194,0,-0.0469,-0.0415,-0.0344,-0.0251,-0.0224,-0.0179,-0.0079,-0.0026,0.0036,0.0125,0.0146,0.023,0.0273,0.0266,0.0272,0.0234,0.0217,0.0218,0.0273,0.0275,0.0207,0.0169,0.0156,0.0155,0.0187,0.0187,0.0187,0,-0.0461,-0.0427,-0.0336,-0.0297,-0.0252,-0.0181,-0.0125,-0.0042,0.0023,0.016,0.0209,0.028,0.0369,0.037,0.0326,0.0286,0.0246,0.0276,0.0259,0.0216,0.0171,0.0151,0.015,0.0326,0.0327,0.0328,0.0328,0,-0.0442,-0.042,-0.0361,-0.0291,-0.0232,-0.0155,-0.0068,-0.0015,0.0101,0.0195,0.0341,0.0426,0.0452,0.0481,0.0412,0.0374,0.0267,0.0291,0.0246,0.0277,0.0259,0.0252,0.0302,0.0337,0.0336,0.0335,0.0335,0.0335,-0.043,-0.0395,-0.0328,-0.0261,-0.0196,-0.0105,-0.002,0.008,0.0212,0.0393,0.0441,0.0603,0.0595,0.0538,0.0469,0.035,0.032,0.0315,0.0272,0.0256,0.026,0.0316,0.0342,0.0342,0.0341,0.034,0.034,0,-0.0392,-0.035,-0.0292,-0.0196,-0.0117,-0.0087,0.0045,0.0149,0.0329,0.0475,0.0621,0.0725,0.0715,0.0624,0.0463,0.0359,0.0332,0.0301,0.0299,0.0296,0.0358,0.037,0.0406,0.0406,0.0406,0.0406,0.0406,0.0406,-0.0361,-0.0298,-0.0268,-0.0133,-0.0063,0.0074,0.0167,0.0308,0.0438,0.0643,0.0762,0.0838,0.0782,0.0529,0.0356,0.0318,0.0251,0.0252,0.0184,0.0231,0.023,0.0228,0.0232,0.0238,0.0238,0.0184,0.0183,0.0182]}],[{"header":{"parameterUnit":"m.s-1","parameterCategory":2,"la1":30.2991,"la2":30.254,"lo1":-89.0895,"lo2":-89.0444,"dy":0.0017,"dx":0.0017,"nx":28,"ny":28,"refTime":"2025-08-01T03:00:00:Z","depth":"2","parameterNumber":2,"parameterNumberName":"U-component_of_CURRENTS"},"data":[0,0,0,0,0,0,0,0,0,0,0,0,0,0,0,0,0,0,0,0,0,0,0,0,0,0,0,0,0,0,0,0,0,0,0,0,0,0,0,0,0,0,0,0,0,0,0,0,0,0,0,0,0,0,0,0,0,0,0.0796,0.0796,0,0.0783,0.0783,0.0783,0.0798,0.0798,0.0799,0.0799,0.0902,0.0904,0.0906,0,0,0,0,0,0,0,0,0,0,0,0,0,0.0849,0.0848,0.0796,0.0796,0.0795,0.0783,0.0783,0.0783,0.0798,0.0798,0.0799,0.0799,0.0901,0.0904,0.0906,0,0,0,0,0,0,0,0,0,0,0,0,0,0.0831,0.0848,0.0796,0.08,0.0801,0.0783,0.0783,0.0783,0.0798,0.0798,0.0799,0.08,0.09,0.0903,0.0907,0.0915,0,0,0.0917,0.0919,0,0,0,0,0,0,0,0,0.0832,0.083,0.08,0.08,0.08,0.0792,0.0839,0.0833,0.0798,0.08,0.0799,0.08,0.0874,0.088,0.0876,0.092,0.0924,0.0918,0.092,0.0921,0.0922,0,0,0,0,0,0,0,0.0834,0.083,0.0792,0.08,0.08,0.0809,0.0807,0.0838,0.0837,0.08,0.0801,0.0797,0.0875,0.0873,0.0879,0.0926,0.0918,0.0921,0.0923,0.0924,0.1103,0.1106,0,0,0,0,0,0,0.0831,0.0831,0.0793,0.0792,0.0817,0.0807,0.0805,0.0795,0.0834,0.0839,0.0797,0.0798,0.0866,0.0875,0.0883,0.0988,0.0921,0.0925,0.0927,0.1101,0.1104,0.1107,0,0,0,0,0,0,0.0832,0.0827,0.0793,0.0811,0.0807,0.0805,0.0794,0.0794,0.0812,0.083,0.0838,0.0816,0.0867,0.0878,0.0939,0.0989,0.0926,0.0929,0.1097,0.1102,0.1105,0.1139,0,0,0,0,0,0,0.0833,0.0827,0.0829,0.081,0.0806,0.0801,0.0793,0.0793,0.0806,0.0809,0.0849,0.0857,0.0869,0.0933,0.0942,0.0992,0.0932,0.1094,0.1099,0.1104,0.1135,0.1144,0.1152,0,0,0,0,0,0.0835,0.0834,0.0829,0.0824,0.0804,0.0801,0.0801,0.0802,0.0807,0.082,0.0854,0.0857,0.0972,0.0938,0.0947,0.1,0.1092,0.1098,0.1104,0.1131,0.1142,0.1152,0,0,0,0,0,0,0.0866,0.0834,0.0829,0.082,0.0819,0.0804,0.0812,0.0814,0.0846,0.0857,0.0878,0.089,0.0969,0.0981,0.0942,0.1071,0.1038,0.1046,0.1056,0.1067,0.1075,0.1067,0.0935,0,0,0,0,0,0.0869,0.0857,0.0838,0.0836,0.0833,0.0826,0.0829,0.0831,0.0848,0.0862,0.0891,0.0938,0.0997,0.1027,0.1071,0.1129,0.1156,0.1176,0.1185,0.1192,0.1195,0.1294,0.1311,0.1126,0.1126,0.1126,0,0,0.0881,0.0862,0.0858,0.0841,0.0837,0.0839,0.0831,0.0839,0.0858,0.0871,0.0921,0.0968,0.1021,0.1093,0.113,0.111,0.1258,0.1199,0.1205,0.1204,0.1302,0.132,0.1336,0.1131,0.113,0.1129,0,0,0.0895,0.0882,0.0876,0.0873,0.0867,0.0863,0.0871,0.0872,0.0892,0.0937,0.097,0.1045,0.1108,0.1164,0.12,0.1284,0.1302,0.1308,0.134,0.1437,0.1452,0.1466,0.151,0.1527,0.1309,0.1309,0.1309,0,0.0918,0.0898,0.088,0.0876,0.088,0.0877,0.0887,0.0902,0.093,0.097,0.0963,0.1111,0.1145,0.1262,0.1287,0.1304,0.1342,0.1291,0.1446,0.1461,0.1475,0.1516,0.1535,0.1312,0.1311,0.1311,0.1311,0,0.092,0.0913,0.0914,0.0903,0.0911,0.0919,0.0929,0.0962,0.0988,0.1017,0.1134,0.1189,0.1282,0.1313,0.1319,0.1449,0.1439,0.1445,0.1412,0.1495,0.1533,0.1553,0.1315,0.1314,0.1313,0.1313,0,0,0.0958,0.092,0.0925,0.0923,0.0926,0.0933,0.0977,0.1026,0.1075,0.1133,0.1219,0.1323,0.1366,0.141,0.1452,0.1523,0.1639,0.152,0.1524,0.1547,0.1826,0.1644,0.1647,0.1678,0.1682,0.1685,0.1807,0,0.0973,0.0958,0.0946,0.0962,0.0959,0.0979,0.1018,0.1071,0.1125,0.1207,0.1302,0.1395,0.1401,0.1457,0.1538,0.1622,0.1694,0.1603,0.1755,0.1759,0.1576,0.1665,0.1478,0.1556,0.1825,0.1829,0.1831,0,0.0993,0.0973,0.0978,0.0983,0.0989,0.1007,0.1083,0.1119,0.1231,0.1281,0.1399,0.1463,0.1599,0.1578,0.1773,0.1717,0.1776,0.1823,0.183,0.166,0.1613,0.1523,0.158,0.1863,0.186,0.1858,0.1856,0,0.1026,0.101,0.1013,0.1012,0.1017,0.1048,0.1069,0.1157,0.1208,0.1339,0.1401,0.1561,0.1647,0.177,0.1861,0.1838,0.2044,0.2029,0.1923,0.1909,0.1776,0.1742,0.2169,0.2169,0.2168,0.2168,0.2168,0,0.105,0.106,0.1024,0.1027,0.1055,0.106,0.1126,0.1175,0.1265,0.1341,0.1446,0.1541,0.1702,0.1827,0.1904,0.1961,0.2094,0.1938,0.1941,0.1777,0.1744,0.203,0.2012,0.2172,0.2171,0.2171,0.217,0,0.1102,0.1072,0.1078,0.1069,0.1069,0.1098,0.1133,0.1178,0.1259,0.1364,0.141,0.1564,0.1716,0.1845,0.2032,0.199,0.2078,0.2065,0.1823,0.179,0.1865,0.1848,0.196,0.1955,0.1951,0.1947,0.1944,0,0.1126,0.1126,0.1111,0.1107,0.1104,0.1127,0.1141,0.1187,0.1229,0.1376,0.1428,0.1592,0.1693,0.1857,0.1829,0.1898,0.2039,0.1732,0.1635,0.1859,0.1851,0.1841,0.183,0.149,0.1483,0.1478,0.1474,0,0.1174,0.1172,0.1167,0.115,0.115,0.1149,0.1165,0.1194,0.1259,0.1341,0.1466,0.1554,0.1627,0.159,0.1594,0.1607,0.1693,0.1614,0.1993,0.1527,0.1413,0.1405,0.1412,0.1426,0.1431,0.1434,0.1437,0.1439,0.1222,0.1226,0.1205,0.1196,0.1186,0.1171,0.1186,0.1209,0.1268,0.1359,0.1419,0.1469,0.1406,0.1316,0.1306,0.1268,0.1356,0.1308,0.1327,0.1352,0.1231,0.1111,0.1044,0.1047,0.1049,0.1051,0.1052,0,0.1254,0.1251,0.1242,0.122,0.1208,0.1216,0.1202,0.1202,0.1269,0.1286,0.1351,0.115,0.1074,0.1107,0.092,0.0834,0.0866,0.0858,0.0913,0.0955,0.0994,0.086,0.0573,0.0573,0.0573,0.0573,0,0,0.127,0.1265,0.1246,0.1233,0.1245,0.1236,0.1241,0.1226,0.1197,0.1163,0.1122,0.1089,0.1035,0.081,0.072,0.0657,0.0835,0.063,0.0995,0.1103,0.1143,0.1203,0.1035,0,0,0,0,0]},{"header":{"parameterUnit":"m.s-1","parameterCategory":2,"la1":30.2991,"la2":30.254,"lo1":-89.0895,"lo2":-89.0444,"dy":0.0017,"dx":0.0017,"nx":28,"ny":28,"refTime":"2025-08-01T03:00:00:Z","depth":"2","parameterNumber":3,"parameterNumberName":"V-component_of_CURRENTS"},"data":[0,0,0,0,0,0,0,0,0,0,0,0,0,0,0,0,0,0,0,0,0,0,0,0,0,0,0,0,0,0,0,0,0,0,0,0,0,0,0,0,0,0,0,0,0,0,0,0,0,0,0,0,0,0,0,0,0,0,0.0068,0.0068,0,0.0038,0.0038,0.0038,-0.0027,-0.0029,-0.003,-0.0032,-0.0126,-0.0127,-0.0129,0,0,0,0,0,0,0,0,0,0,0,0,0,0.0099,0.0099,0.0068,0.0068,0.0067,0.0038,0.0038,0.0037,-0.0027,-0.0029,-0.0031,-0.0032,-0.0126,-0.0127,-0.0129,0,0,0,0,0,0,0,0,0,0,0,0,0,0.008,0.0099,0.0068,0.003,0.0027,0.0038,0.0038,0.0037,-0.0027,-0.0029,-0.0031,-0.0033,-0.0125,-0.0127,-0.0129,-0.0097,0,0,-0.0134,-0.0135,0,0,0,0,0,0,0,0,0.0082,0.0079,0.0036,0.0033,0.0029,0.0006,0.0014,-0.0011,-0.0026,-0.0005,-0.0032,-0.0034,-0.0087,-0.0092,-0.009,-0.0101,-0.0105,-0.0134,-0.0136,-0.0136,-0.0137,0,0,0,0,0,0,0,0.0083,0.0081,0.0057,0.0036,0.0031,0.0025,0.002,0.0009,-0.0034,-0.0007,-0.0012,-0.0017,-0.009,-0.0088,-0.0093,-0.0107,-0.0134,-0.0136,-0.0137,-0.0138,-0.012,-0.0118,0,0,0,0,0,0,0.0085,0.0082,0.0058,0.0056,0.0049,0.0026,0.002,0.0016,-0.0033,-0.0042,-0.0015,-0.002,-0.0084,-0.0091,-0.0097,-0.0063,-0.0136,-0.0138,-0.0139,-0.0121,-0.0119,-0.0118,0,0,0,0,0,0,0.0086,0.0083,0.006,0.0067,0.0063,0.0027,0.0024,0.0017,0.0002,-0.0038,-0.0049,-0.0025,-0.0086,-0.0095,-0.01,-0.0068,-0.0139,-0.014,-0.0123,-0.0121,-0.0118,0.0006,0,0,0,0,0,0,0.0087,0.0084,0.0081,0.0068,0.0063,0.0072,0.0026,0.0018,0.0003,-0.0004,-0.005,-0.006,-0.0089,-0.0097,-0.0102,-0.0071,-0.0142,-0.0125,-0.0122,-0.0119,-0.0,0.0012,0.0022,0,0,0,0,0,0.0088,0.0096,0.0081,0.0078,0.0061,0.0073,0.0071,0.0038,0.0004,0.0014,-0.0016,-0.006,-0.0083,-0.0096,-0.0103,-0.0072,-0.0126,-0.0123,-0.0119,-0.0006,0.0009,0.0022,0,0,0,0,0,0,0.0104,0.0089,0.0073,0.0074,0.0075,0.0061,0.0061,0.004,0.0026,0.001,-0.0035,-0.0045,-0.0037,-0.0071,-0.0085,-0.0059,-0.0113,-0.0111,-0.0024,-0.0011,0.0,0.0012,-0.0143,0,0,0,0,0,0.0109,0.011,0.01,0.0102,0.0102,0.0081,0.0078,0.0061,0.0046,0.0036,0.0008,-0.0019,-0.0021,-0.0032,-0.0043,-0.0027,-0.0065,-0.0014,-0.0002,0.0008,0.0013,-0.0015,-0.0006,-0.0106,-0.0106,-0.0106,0,0,0.0116,0.0107,0.0107,0.0106,0.0098,0.0123,0.0074,0.0075,0.0098,0.003,0.0044,0.002,-0.0008,0.0015,0.0015,-0.0014,0.002,0.0012,0.0021,0.0021,-0.0011,-0.0001,0.0008,-0.0104,-0.0104,-0.0105,0,0,0.0143,0.0123,0.0139,0.0149,0.0145,0.0144,0.0145,0.0136,0.013,0.015,0.011,0.0106,0.0094,0.009,0.0084,0.015,0.0083,0.014,0.0207,0.0181,0.0189,0.0195,0.0177,0.0181,0.0144,0.0145,0.0145,0,0.0146,0.0168,0.0148,0.0175,0.0189,0.0157,0.0193,0.0198,0.019,0.02,0.0165,0.0165,0.0136,0.0172,0.0196,0.0178,0.0147,0.016,0.0196,0.0201,0.0206,0.0185,0.0188,0.0151,0.015,0.015,0.0149,0,0.0196,0.0214,0.0227,0.0252,0.027,0.0293,0.0302,0.0316,0.0302,0.0304,0.0325,0.0295,0.029,0.0288,0.0264,0.0293,0.0258,0.0216,0.0163,0.0223,0.0198,0.0198,0.016,0.0158,0.0156,0.0154,0,0,0.0197,0.025,0.0253,0.0285,0.0312,0.0335,0.0383,0.0421,0.045,0.0442,0.0478,0.0478,0.0442,0.0433,0.0398,0.038,0.0393,0.0317,0.0313,0.0303,0.0339,0.0332,0.0331,0.0352,0.0352,0.0352,0.0315,0,0.0238,0.0305,0.0325,0.0399,0.0436,0.0445,0.0497,0.0528,0.0539,0.0569,0.0543,0.0556,0.0504,0.0496,0.0479,0.0411,0.0397,0.0408,0.0277,0.0274,0.0263,0.0332,0.0299,0.0264,0.0315,0.0315,0.0315,0,0.0281,0.0321,0.0394,0.0476,0.0493,0.0531,0.0601,0.0646,0.0684,0.0689,0.0696,0.0667,0.066,0.059,0.0518,0.0524,0.0446,0.0387,0.0383,0.0331,0.0268,0.0207,0.0262,0.0314,0.0314,0.0314,0.0314,0,0.0291,0.0374,0.0433,0.0459,0.0541,0.0574,0.0617,0.0671,0.0713,0.0752,0.077,0.0758,0.0732,0.0654,0.054,0.0524,0.0444,0.04,0.0327,0.0325,0.0249,0.024,0.0345,0.0345,0.0345,0.0345,0.0345,0,0.0331,0.038,0.0436,0.0469,0.054,0.0592,0.0666,0.0708,0.0765,0.0811,0.0816,0.0839,0.0739,0.0684,0.0579,0.0465,0.047,0.0357,0.0321,0.0294,0.029,0.0284,0.0277,0.0344,0.0344,0.0344,0.0345,0,0.0343,0.0378,0.0446,0.0522,0.0544,0.0591,0.068,0.0735,0.0787,0.0843,0.0852,0.0883,0.0822,0.0723,0.0592,0.0507,0.04,0.0349,0.0334,0.0299,0.0291,0.0291,0.0283,0.0282,0.0282,0.0282,0.0281,0,0.0363,0.0395,0.0462,0.0488,0.0518,0.0589,0.0637,0.0721,0.0775,0.0866,0.0889,0.0878,0.0874,0.0725,0.0563,0.0406,0.0389,0.0283,0.0253,0.0322,0.0287,0.0288,0.0289,0.0201,0.02,0.0199,0.0199,0,0.0402,0.0406,0.0452,0.0489,0.0532,0.0603,0.0673,0.0723,0.0815,0.0871,0.0937,0.0951,0.0834,0.0681,0.0491,0.0391,0.0315,0.0265,0.0331,0.0231,0.0244,0.021,0.0214,0.0192,0.0193,0.0193,0.0194,0.0194,0.0413,0.0434,0.0463,0.05,0.0541,0.0597,0.0657,0.0735,0.0821,0.0896,0.0924,0.0915,0.0768,0.0509,0.0378,0.0254,0.0265,0.0192,0.0194,0.0197,0.0204,0.0216,0.0161,0.0161,0.0162,0.0162,0.0162,0,0.0427,0.0437,0.0477,0.0511,0.0542,0.056,0.0666,0.0728,0.0811,0.0851,0.0886,0.0714,0.0582,0.045,0.0237,0.0128,0.0127,0.0112,0.0106,0.0112,0.0118,0.0121,0.0056,0.0056,0.0055,0.0055,0,0,0.0436,0.0459,0.0472,0.05,0.0507,0.0548,0.0602,0.0684,0.074,0.0779,0.0749,0.0716,0.056,0.0366,0.0228,0.0137,0.0159,0.0134,0.0224,0.0237,0.0244,0.0162,0.0174,0,0,0,0,0]}],[{"header":{"parameterUnit":"m.s-1","parameterCategory":2,"la1":30.2991,"la2":30.254,"lo1":-89.0895,"lo2":-89.0444,"dy":0.0017,"dx":0.0017,"nx":28,"ny":28,"refTime":"2025-08-01T03:00:00:Z","depth":"4","parameterNumber":2,"parameterNumberName":"U-component_of_CURRENTS"},"data":[0,0,0,0,0,0,0,0,0,0,0,0,0,0,0,0,0,0,0,0,0,0,0,0,0,0,0,0,0,0,0,0,0,0,0,0,0,0,0,0,0,0,0,0,0,0,0,0,0,0,0,0,0,0,0,0,0,0,-0.0209,-0.0209,0,-0.0128,-0.0126,-0.0125,-0.0031,-0.003,-0.0029,-0.0028,0.0046,0.0047,0.0048,0,0,0,0,0,0,0,0,0,0,0,0,0,-0.0248,-0.0248,-0.021,-0.0209,-0.0208,-0.0128,-0.0126,-0.0125,-0.0031,-0.003,-0.0029,-0.0028,0.0046,0.0047,0.0049,0,0,0,0,0,0,0,0,0,0,0,0,0,-0.0202,-0.0248,-0.021,-0.0155,-0.0149,-0.0128,-0.0126,-0.0125,-0.0032,-0.003,-0.0028,-0.0027,0.0046,0.0047,0.0049,0.0026,0,0,0.0053,0.0054,0,0,0,0,0,0,0,0,-0.0205,-0.02,-0.0163,-0.0158,-0.0152,-0.0091,-0.0113,-0.0076,-0.0032,-0.0072,-0.0028,-0.0026,-0.0004,0.0002,0.0019,0.0029,0.0033,0.0053,0.0054,0.0055,0.0055,0,0,0,0,0,0,0,-0.0208,-0.0203,-0.0173,-0.0163,-0.0156,-0.0122,-0.0113,-0.0105,-0.0045,-0.0069,-0.0062,-0.006,-0.0,0.0017,0.0021,0.0034,0.0053,0.0055,0.0056,0.0056,0.0126,0.0127,0,0,0,0,0,0,-0.023,-0.0207,-0.0176,-0.0171,-0.0179,-0.0123,-0.0113,-0.0109,-0.0045,-0.0035,-0.0061,-0.0056,0.0014,0.002,0.0024,0.013,0.0055,0.0056,0.0057,0.0125,0.0126,0.0127,0,0,0,0,0,0,-0.0231,-0.0228,-0.0179,-0.019,-0.0182,-0.0125,-0.0121,-0.0109,-0.0028,-0.004,-0.0029,0.0013,0.0016,0.0022,0.009,0.0129,0.0057,0.0058,0.0124,0.0125,0.0126,0.0259,0,0,0,0,0,0,-0.0232,-0.0229,-0.0225,-0.0192,-0.0182,-0.0124,-0.0122,-0.0108,-0.0035,-0.0025,0.0026,0.0031,0.0017,0.0088,0.0091,0.013,0.0059,0.0122,0.0124,0.0126,0.0253,0.0264,0.0274,0,0,0,0,0,-0.0234,-0.0229,-0.0225,-0.0221,-0.0181,-0.0123,-0.0112,-0.0065,-0.0033,0.0014,0.0051,0.0033,0.01,0.0091,0.0095,0.0134,0.0121,0.0124,0.0126,0.0248,0.0262,0.0274,0,0,0,0,0,0,-0.0238,-0.0219,-0.0213,-0.0202,-0.015,-0.0107,-0.0066,-0.0029,0.0039,0.0068,0.0064,0.0072,0.0137,0.0114,0.0104,0.0153,0.0099,0.0103,0.0191,0.0204,0.0215,0.02,0.0061,0,0,0,0,0,-0.0245,-0.0234,-0.0199,-0.0183,-0.0151,-0.0096,-0.0062,-0.0014,0.0038,0.0075,0.0114,0.0133,0.0136,0.016,0.0165,0.0208,0.0129,0.0225,0.0236,0.0245,0.0232,0.0144,0.0145,0.0134,0.0134,0.0134,0,0,-0.0248,-0.0232,-0.0229,-0.0183,-0.0136,-0.0069,-0.0066,0.002,0.0082,0.0067,0.0184,0.0186,0.0155,0.0202,0.0226,0.02,0.021,0.0248,0.0257,0.0238,0.0146,0.0147,0.0148,0.0135,0.0135,0.0135,0,0,-0.0223,-0.0219,-0.0185,-0.0131,-0.005,-0.0017,0.0025,0.0117,0.0168,0.026,0.025,0.0274,0.0326,0.0293,0.0277,0.0342,0.027,0.036,0.041,0.0327,0.0326,0.0325,0.0241,0.0231,0.0366,0.0366,0.0366,0,-0.0221,-0.0173,-0.016,-0.0089,-0.0037,0.002,0.0104,0.0152,0.026,0.028,0.032,0.0345,0.0348,0.0328,0.0369,0.0365,0.0312,0.0374,0.034,0.0337,0.0333,0.0247,0.0234,0.0373,0.0372,0.0371,0.0371,0,-0.0155,-0.0101,-0.006,0.0032,0.0086,0.0177,0.0238,0.0311,0.038,0.0405,0.0448,0.0446,0.0448,0.0455,0.0449,0.0425,0.0396,0.0366,0.031,0.0342,0.0249,0.0234,0.0382,0.038,0.0378,0.0376,0,0,-0.0168,-0.0043,-0.0018,0.0046,0.0171,0.0224,0.0314,0.0381,0.0412,0.0499,0.051,0.0542,0.054,0.0519,0.0501,0.0445,0.0403,0.0427,0.0419,0.0347,0.0227,0.0277,0.0264,0.0384,0.0382,0.038,0.0178,0,-0.0098,0.0034,0.0082,0.0223,0.0303,0.0364,0.0422,0.048,0.052,0.0541,0.0512,0.0531,0.056,0.0573,0.0528,0.042,0.0367,0.046,0.0201,0.0193,0.0236,0.0249,0.0373,0.0165,0.0162,0.0159,0.0157,0,-0.0028,0.0052,0.0197,0.0308,0.0348,0.0431,0.0509,0.0568,0.0568,0.0592,0.0591,0.0573,0.0527,0.0541,0.038,0.045,0.0368,0.0277,0.0266,0.0249,0.0214,0.0119,0.0127,0.013,0.0132,0.0134,0.0136,0,-0.003,0.0132,0.0245,0.03,0.043,0.0494,0.0556,0.0591,0.0603,0.0619,0.0599,0.0562,0.051,0.0421,0.0283,0.0348,0.0048,0.0094,0.0044,0.0045,-0.0001,0.0002,-0.0036,-0.0036,-0.0035,-0.0035,-0.0034,0,0.002,0.0112,0.0262,0.033,0.0434,0.052,0.0589,0.0632,0.0637,0.0577,0.063,0.0524,0.0481,0.0315,0.0236,0.0074,0.0007,0.0044,-0.0002,0.0062,0.0075,-0.0012,-0.0006,-0.0042,-0.0041,-0.0039,-0.0038,0,0.0,0.0108,0.0235,0.0393,0.0443,0.0518,0.061,0.0614,0.0648,0.0558,0.0562,0.0472,0.0321,0.0225,0.001,-0.0011,-0.0166,-0.022,-0.0179,-0.022,-0.0087,-0.0072,-0.0227,-0.0226,-0.0226,-0.0226,-0.0226,0,0.0001,0.0072,0.0258,0.0313,0.04,0.0508,0.0545,0.0622,0.058,0.0459,0.0362,0.0256,0.0187,-0.0068,-0.0148,-0.026,-0.026,-0.0332,-0.0126,-0.0076,-0.0107,-0.0092,-0.0078,-0.0226,-0.0226,-0.0226,-0.0226,0,-0.0018,0.0059,0.0147,0.0262,0.0348,0.0408,0.045,0.0418,0.0404,0.0418,0.0232,0.0171,-0.0013,-0.009,-0.0173,-0.028,-0.0259,-0.0329,-0.0326,-0.0132,-0.0077,-0.0105,-0.0091,-0.0226,-0.0226,-0.0226,-0.0226,0,-0.005,-0.0011,0.0095,0.0191,0.0265,0.0269,0.0325,0.0286,0.0286,0.0193,0.0072,-0.0029,-0.0081,-0.012,-0.0269,-0.0269,-0.0197,-0.0166,-0.017,-0.0171,-0.0048,0.0038,-0.0127,0,0,0,0,0,-0.0083,-0.006,0.0003,0.0104,0.0159,0.0202,0.0215,0.0244,0.0204,0.0104,0.0131,-0.0012,-0.0088,-0.0172,-0.0145,-0.0254,-0.023,-0.0228,-0.0203,-0.0224,-0.0224,-0.0078,0,0,0,0,0,0,-0.0112,-0.0062,-0.003,-0.001,0.0029,0.0075,0.0083,0.0073,0.004,0.0015,-0.001,0.0008,-0.0058,-0.008,-0.0143,-0.0156,-0.0133,-0.0251,-0.025,-0.0223,-0.0224,-0.0224,-0.0074,0,0,0,0,0]},{"header":{"parameterUnit":"m.s-1","parameterCategory":2,"la1":30.2991,"la2":30.254,"lo1":-89.0895,"lo2":-89.0444,"dy":0.0017,"dx":0.0017,"nx":28,"ny":28,"refTime":"2025-08-01T03:00:00:Z","depth":"4","parameterNumber":3,"parameterNumberName":"V-component_of_CURRENTS"},"data":[0,0,0,0,0,0,0,0,0,0,0,0,0,0,0,0,0,0,0,0,0,0,0,0,0,0,0,0,0,0,0,0,0,0,0,0,0,0,0,0,0,0,0,0,0,0,0,0,0,0,0,0,0,0,0,0,0,0,0.0455,0.0455,0,0.0532,0.0533,0.0535,0.0642,0.0643,0.0645,0.0646,0.0545,0.0541,0.0537,0,0,0,0,0,0,0,0,0,0,0,0,0,0.0429,0.0429,0.0455,0.0455,0.0456,0.0532,0.0533,0.0535,0.0642,0.0643,0.0645,0.0647,0.0546,0.0541,0.0536,0,0,0,0,0,0,0,0,0,0,0,0,0,0.0471,0.0429,0.0455,0.0515,0.052,0.0532,0.0533,0.0535,0.0641,0.0643,0.0645,0.0647,0.0547,0.0542,0.0536,0.0459,0,0,0.0518,0.0515,0,0,0,0,0,0,0,0,0.0469,0.0473,0.0505,0.051,0.0517,0.0575,0.0487,0.0499,0.0641,0.0601,0.0646,0.0648,0.0533,0.0529,0.0549,0.0454,0.0449,0.0517,0.0514,0.0511,0.0509,0,0,0,0,0,0,0,0.0465,0.047,0.0491,0.0505,0.0513,0.0547,0.0556,0.0491,0.0555,0.0604,0.0611,0.0611,0.0536,0.0554,0.0546,0.0448,0.0517,0.0512,0.0508,0.0506,0.0287,0.0284,0,0,0,0,0,0,0.0442,0.0467,0.0488,0.0492,0.0491,0.0545,0.0555,0.0558,0.056,0.0562,0.0609,0.0616,0.0563,0.0553,0.0543,0.0452,0.0511,0.0505,0.0502,0.0289,0.0286,0.0284,0,0,0,0,0,0,0.0441,0.0443,0.0485,0.0477,0.0485,0.0543,0.0546,0.0559,0.0616,0.0565,0.0565,0.0657,0.0565,0.0551,0.0482,0.0449,0.0503,0.0497,0.0292,0.0288,0.0285,0.0269,0,0,0,0,0,0,0.044,0.0442,0.0463,0.0476,0.0484,0.0503,0.0544,0.0559,0.0607,0.0618,0.0603,0.0596,0.0565,0.0491,0.0476,0.0442,0.0493,0.0294,0.029,0.0286,0.0272,0.0265,0.0259,0,0,0,0,0,0.0439,0.0445,0.0464,0.0468,0.0502,0.0502,0.0511,0.0562,0.0608,0.0625,0.0597,0.0598,0.0454,0.0484,0.0467,0.043,0.0296,0.0291,0.0286,0.0275,0.0267,0.026,0,0,0,0,0,0,0.0446,0.0456,0.0478,0.0489,0.0501,0.0519,0.056,0.0578,0.0581,0.0598,0.0563,0.0549,0.0475,0.0449,0.0484,0.0353,0.0377,0.0368,0.0374,0.0366,0.0359,0.038,0.0488,0,0,0,0,0,0.0453,0.0471,0.0471,0.0489,0.0506,0.0541,0.0561,0.0577,0.0569,0.0581,0.0544,0.0499,0.0433,0.0403,0.0341,0.0267,0.0274,0.0232,0.0226,0.0221,0.0224,0.0188,0.018,0.0267,0.0267,0.0267,0,0,0.0458,0.0472,0.0481,0.0494,0.0532,0.0519,0.0563,0.0591,0.0562,0.0555,0.0513,0.0472,0.0408,0.0323,0.0289,0.0304,0.0204,0.0215,0.0211,0.0217,0.0182,0.0174,0.0167,0.0263,0.0264,0.0265,0,0,0.0467,0.0502,0.0518,0.0521,0.0551,0.0543,0.0552,0.0556,0.056,0.0495,0.0476,0.0418,0.0325,0.0267,0.0229,0.0147,0.017,0.0131,0.0115,0.0079,0.0073,0.0067,0.0096,0.0093,0.013,0.013,0.013,0,0.048,0.0491,0.0522,0.0528,0.0526,0.055,0.0538,0.0525,0.0486,0.046,0.0476,0.0338,0.0294,0.0185,0.0163,0.0133,0.0146,0.0154,0.0074,0.0068,0.0063,0.0094,0.0091,0.0129,0.0129,0.0129,0.0129,0,0.0486,0.0497,0.0514,0.0517,0.0509,0.0511,0.0474,0.0451,0.0445,0.041,0.0322,0.0258,0.0189,0.0151,0.0135,0.0057,0.0092,0.0073,0.0105,0.0054,0.0089,0.0086,0.0127,0.0127,0.0128,0.0128,0,0,0.0509,0.0515,0.053,0.0521,0.0503,0.0491,0.0433,0.0377,0.0346,0.029,0.0231,0.0128,0.0131,0.0088,0.0054,0.0017,0.0,0.0039,0.0038,0.0089,-0.0023,-0.0018,-0.002,-0.0025,-0.0027,-0.0028,0.0031,0,0.0517,0.0524,0.0508,0.0479,0.0469,0.044,0.0379,0.0322,0.0277,0.021,0.0152,0.0092,0.0095,0.0079,0.0035,-0.001,-0.0013,-0.001,0.0,0.0002,0.0027,-0.0027,-0.0033,0.0029,0.0028,0.0028,0.0027,0,0.053,0.0525,0.052,0.0454,0.0453,0.043,0.0358,0.0302,0.0208,0.0176,0.0115,0.0075,0.0005,0.0026,-0.0038,-0.0029,-0.001,-0.0029,-0.0028,-0.0022,-0.0002,0.0078,0.0022,0.0023,0.0023,0.0024,0.0024,0,0.0547,0.0524,0.0526,0.0512,0.0443,0.0434,0.0403,0.0316,0.0264,0.0188,0.0142,0.0058,0.0023,0.0001,-0.001,-0.002,-0.0059,-0.0082,-0.005,-0.0046,-0.0053,-0.0048,-0.0096,-0.0096,-0.0096,-0.0096,-0.0096,0,0.0539,0.054,0.0554,0.0548,0.0527,0.0479,0.0441,0.0391,0.0307,0.0212,0.0165,0.0067,0.0015,-0.0024,-0.0016,-0.0032,-0.0047,-0.0054,-0.0051,-0.0058,-0.0054,-0.0052,-0.0048,-0.0094,-0.0094,-0.0095,-0.0095,0,0.0545,0.0567,0.0556,0.0536,0.0542,0.0541,0.0495,0.0434,0.0382,0.0256,0.0238,0.0091,0.002,0.0006,-0.0041,-0.0039,-0.0049,-0.0027,0.0019,0.0026,-0.0004,-0.0001,-0.0024,-0.0024,-0.0024,-0.0024,-0.0024,0,0.0538,0.0546,0.0578,0.059,0.06,0.0597,0.0563,0.05,0.0407,0.0237,0.0144,0.0065,-0.0028,-0.0066,-0.0081,-0.0032,-0.0027,0.0012,-0.0057,-0.0012,-0.0006,-0.0003,-0.0001,-0.0023,-0.0023,-0.0023,-0.0023,0,0.0489,0.0547,0.054,0.0592,0.0602,0.0551,0.05,0.0423,0.0283,0.0263,0.0061,0.0004,-0.0084,-0.0123,-0.0042,-0.0028,-0.0014,0.0013,0.0011,-0.0053,-0.0011,-0.0004,-0.0003,-0.0023,-0.0023,-0.0023,-0.0023,0,0.0469,0.0472,0.0513,0.055,0.0569,0.0477,0.0439,0.0307,0.0225,0.0043,-0.002,-0.0102,-0.0135,-0.012,-0.0081,-0.0033,-0.0058,-0.0045,-0.0044,-0.0045,-0.0081,-0.0032,-0.0054,0,0,0,0,0,0.0428,0.0438,0.0452,0.0445,0.0466,0.0496,0.0363,0.0292,0.0169,0.0036,0.0008,-0.007,-0.0096,-0.0129,-0.0085,-0.0099,-0.0048,-0.0049,-0.0031,-0.0019,-0.002,-0.0061,0,0,0,0,0,0,0.0389,0.042,0.0426,0.0382,0.0398,0.0354,0.0296,0.0186,0.0091,0.0007,-0.0004,0.0003,-0.001,-0.0061,-0.0045,-0.0043,-0.0023,-0.0041,-0.004,-0.0019,-0.002,-0.002,-0.0063,0,0,0,0,0]}]]